Location: Unspecified
(0.0000°N, 0.0000°E)
Time: 19:35:49
(UTC+00:00)

Vanguard 1 Rocket - Pass Details

Date: 18 April 2026
Orbit: 655 x 4212 km, 34.3° (Epoch: 17 May)

Event Time Altitude Azimuth Distance (km) Brightness Sun altitude
Rises 00:56:50 0° 308° (NW) 8,349 12.3 -72.1°
Reaches altitude 10° 01:07:10 10° 326° (NW) 6,880 11.8 -70.0°
Maximum altitude 01:19:07 17° 0° (N) 5,392 11.3 -67.5°
Drops below altitude 10° 01:28:02 10° 36° (NE) 5,026 11.4 -65.5°
Sets 01:33:24 0° 56° (NE) 5,373 11.7 -64.3°
